Auburn, IN

1:28 AM EDT on July 21, 2017 (GMT -0400)
Auburn

Weather History for KGWB - November, 2012

Change the Weather History Date:

Sunday, November 4, 2012

  Actual Average (KFWA) Record (KFWA)
Temperature  
Mean Temperature 34 °F -  
Max Temperature 41 °F 50 °F 76 °F (2003)
Min Temperature 28 °F 36 °F 15 °F (1951)
Degree Days  
Heating Degree Days 30    
Moisture  
Dew Point 27 °F    
Average Humidity 80    
Maximum Humidity 93    
Minimum Humidity 57    
Precipitation  
Precipitation 0.00 in - - ()
Sea Level Pressure  
Sea Level Pressure 30.18 in    
Wind  
Wind Speed 3 mph (North)    
Max Wind Speed 9 mph    
Max Gust Speed -    
Visibility 10 miles    
Events      
Averages and records for this station are not official NWS values.
T = Trace of Precipitation, MM = Missing Value Source: NWS Daily Summary

Daily Weather History Graph

Daily Weather History Graph

Search for Another Location

Airport or City:

Trip Planner

Search our weather history database for the weather conditions in past years. The results will help you decide how hot, cold, wet, or windy it might be!

Date:

Astronomy

Nov. 04, 2012 Rise Set
Actual Time 7:15 AM EST 5:31 PM EST
Civil Twilight 6:46 AM EST 6:00 PM EST
Nautical Twilight 6:14 AM EST 6:32 PM EST
Astronomical Twilight 5:41 AM EST 7:05 PM EST
Moon 10:08 PM EST (11/4) 11:59 AM EST (11/4)
Length of Visible Light 11h 13m
Length of Day
10h 15m
Waning Gibbous, 72% of the Moon is Illuminated
Nov 4
Waning Gibbous
Nov 6
Last Quarter
Nov 13
New
Nov 20
First Quarter
Nov 28
Full

Hourly Weather History & Observations

Time (EST) Temp. Windchill Dew Point Humidity Pressure Visibility Wind Dir Wind Speed Gust Speed Precip Events Conditions
12:15 AM 33.8 °F 30.8 °F 28.4 °F 81% 30.18 in 10.0 mi NNW 3.5 mph - N/A   Overcast
12:35 AM 33.8 °F 30.8 °F 28.4 °F 81% 30.18 in 10.0 mi NNW 3.5 mph - N/A   Overcast
12:55 AM 32.0 °F 28.7 °F 28.4 °F 87% 30.18 in 10.0 mi North 3.5 mph - N/A   Mostly Cloudy
1:15 AM 32.0 °F 28.7 °F 28.4 °F 87% 30.18 in 10.0 mi North 3.5 mph - N/A   Scattered Clouds
1:35 AM 32.0 °F 27.5 °F 28.4 °F 87% 30.17 in 10.0 mi North 4.6 mph - N/A   Mostly Cloudy
1:55 AM 32.0 °F 28.7 °F 28.4 °F 87% 30.18 in 10.0 mi North 3.5 mph - N/A   Mostly Cloudy
1:15 AM 32.0 °F 28.7 °F 28.4 °F 87% 30.17 in 10.0 mi North 3.5 mph - N/A   Mostly Cloudy
1:35 AM 32.0 °F 27.5 °F 28.4 °F 87% 30.17 in 10.0 mi North 4.6 mph - N/A   Mostly Cloudy
1:55 AM 32.0 °F 28.7 °F 28.4 °F 87% 30.16 in 10.0 mi North 3.5 mph - N/A   Mostly Cloudy
2:15 AM 32.0 °F 28.7 °F 28.4 °F 87% 30.16 in 10.0 mi North 3.5 mph - N/A   Scattered Clouds
2:35 AM 32.0 °F - 26.6 °F 80% 30.17 in 10.0 mi Calm Calm - N/A   Scattered Clouds
2:55 AM 32.0 °F - 26.6 °F 80% 30.17 in 10.0 mi Calm Calm - N/A   Scattered Clouds
3:15 AM 30.2 °F - 26.6 °F 86% 30.18 in 10.0 mi Calm Calm - N/A   Mostly Cloudy
3:35 AM 30.2 °F 26.7 °F 28.4 °F 93% 30.18 in 10.0 mi NW 3.5 mph - N/A   Overcast
3:55 AM 32.0 °F - 28.4 °F 87% 30.17 in 10.0 mi Calm Calm - N/A   Overcast
4:15 AM 32.0 °F 28.7 °F 28.4 °F 87% 30.17 in 10.0 mi NNW 3.5 mph - N/A   Overcast
4:35 AM 32.0 °F 28.7 °F 28.4 °F 87% 30.17 in 10.0 mi NNW 3.5 mph - N/A   Overcast
4:55 AM 32.0 °F 28.7 °F 28.4 °F 87% 30.18 in 10.0 mi North 3.5 mph - N/A   Overcast
5:35 AM 32.0 °F 28.7 °F 28.4 °F 87% 30.18 in 10.0 mi North 3.5 mph - N/A   Overcast
5:55 AM 32.0 °F 28.7 °F 28.4 °F 87% 30.19 in 10.0 mi North 3.5 mph - N/A   Overcast
6:15 AM 32.0 °F - 28.4 °F 87% 30.19 in 10.0 mi Calm Calm - N/A   Overcast
6:35 AM 32.0 °F - 28.4 °F 87% 30.19 in 10.0 mi Calm Calm - N/A   Overcast
6:55 AM 32.0 °F - 30.2 °F 93% 30.19 in 10.0 mi Calm Calm - N/A   Overcast
7:15 AM 32.0 °F - 30.2 °F 93% 30.20 in 10.0 mi Calm Calm - N/A   Overcast
7:35 AM 33.8 °F - 30.2 °F 87% 30.20 in 10.0 mi Calm Calm - N/A   Overcast
7:55 AM 33.8 °F 30.8 °F 30.2 °F 87% 30.20 in 10.0 mi NNW 3.5 mph - N/A   Overcast
8:15 AM 33.8 °F 30.8 °F 30.2 °F 87% 30.21 in 10.0 mi NNW 3.5 mph - N/A   Overcast
8:35 AM 33.8 °F 30.8 °F 30.2 °F 87% 30.21 in 10.0 mi North 3.5 mph - N/A   Overcast
8:55 AM 33.8 °F 28.6 °F 30.2 °F 87% 30.20 in 10.0 mi North 5.8 mph - N/A   Overcast
9:15 AM 35.6 °F 30.7 °F 28.4 °F 75% 30.21 in 10.0 mi North 5.8 mph - N/A   Overcast
9:35 AM 35.6 °F 28.6 °F 26.6 °F 70% 30.21 in 10.0 mi NNW 9.2 mph - N/A   Overcast
9:55 AM 35.6 °F 31.7 °F 26.6 °F 70% 30.21 in 10.0 mi North 4.6 mph - N/A   Overcast
10:15 AM 35.6 °F 31.7 °F 26.6 °F 70% 30.20 in 10.0 mi North 4.6 mph - N/A   Overcast
10:35 AM 37.4 °F 34.9 °F 26.6 °F 65% 30.20 in 10.0 mi North 3.5 mph - N/A   Overcast
10:55 AM 37.4 °F 32.8 °F 26.6 °F 65% 30.21 in 10.0 mi North 5.8 mph - N/A   Overcast
11:15 AM 37.4 °F 34.9 °F 26.6 °F 65% 30.20 in 10.0 mi North 3.5 mph - N/A   Overcast
11:35 AM 37.4 °F - 26.6 °F 65% 30.20 in 10.0 mi Calm Calm - N/A   Overcast
2:35 PM 41.0 °F 36.4 °F 28.4 °F 61% 30.17 in 10.0 mi WNW 6.9 mph - N/A   Overcast
2:55 PM 41.0 °F 37.1 °F 26.6 °F 57% 30.17 in 10.0 mi NNW 5.8 mph - N/A   Overcast
4:15 PM 39.2 °F 37.0 °F 28.4 °F 65% 30.16 in 10.0 mi North 3.5 mph - N/A   Overcast
4:35 PM 39.2 °F 33.6 °F 26.6 °F 61% 30.16 in 10.0 mi North 8.1 mph - N/A   Overcast
4:55 PM 39.2 °F 35.9 °F 26.6 °F 61% 30.16 in 10.0 mi NW 4.6 mph - N/A   Mostly Cloudy
5:15 PM 37.4 °F 33.8 °F 26.6 °F 65% 30.16 in 10.0 mi North 4.6 mph - N/A   Mostly Cloudy
6:15 PM 33.8 °F - 26.6 °F 75% 30.17 in 10.0 mi Calm Calm - N/A   Clear
6:35 PM 33.8 °F - 26.6 °F 75% 30.17 in 10.0 mi Calm Calm - N/A   Clear
6:55 PM 32.0 °F - 26.6 °F 80% 30.18 in 10.0 mi Calm Calm - N/A   Clear
7:15 PM 32.0 °F - 26.6 °F 80% 30.18 in 10.0 mi Calm Calm - N/A   Clear
7:35 PM 32.0 °F - 26.6 °F 80% 30.18 in 10.0 mi Calm Calm - N/A   Clear
7:55 PM 32.0 °F - 26.6 °F 80% 30.18 in 10.0 mi Calm Calm - N/A   Clear
8:15 PM 30.2 °F 26.7 °F 24.8 °F 80% 30.18 in 10.0 mi NE 3.5 mph - N/A   Clear
8:35 PM 32.0 °F 26.4 °F 26.6 °F 80% 30.18 in 10.0 mi NE 5.8 mph - N/A   Clear
8:55 PM 30.2 °F 26.7 °F 24.8 °F 80% 30.19 in 10.0 mi NE 3.5 mph - N/A   Clear
9:15 PM 30.2 °F - 24.8 °F 80% 30.18 in 10.0 mi Calm Calm - N/A   Clear
9:35 PM 30.2 °F - 24.8 °F 80% 30.18 in 10.0 mi Calm Calm - N/A   Clear
9:55 PM 30.2 °F - 24.8 °F 80% 30.18 in 10.0 mi Calm Calm - N/A   Clear
10:15 PM 28.4 °F - 23.0 °F 80% 30.18 in 10.0 mi Calm Calm - N/A   Clear
10:35 PM 28.4 °F - 23.0 °F 80% 30.18 in 10.0 mi Calm Calm - N/A   Clear
10:55 PM 28.4 °F - 23.0 °F 80% 30.18 in 10.0 mi Calm Calm - N/A   Clear